AFR2110 LFPO-LFML

Flight info

Callsign AFR2110
Flight time 1h 4m
Altitude 29000
Route LATR2F LATRA LAMUT UTUVA LERGA LERG1D
Aircraft B738/M-V/N

Departure

Time 2026-05-06 16:12
Airport Paris-Orly Airport (LFPO)

Arrival

Time 2026-05-06 17:17
Airport Marseille Provence Airport (LFML)
Time Latitude Longitude Altitude Speed Heading
2026-05-06 15:31 48.72596 2.34941 291 ft 0 kts 75°
2026-05-06 15:39 48.72595 2.34932 291 ft 1 kts 51°
2026-05-06 15:39 48.72588 2.34923 291 ft 1 kts 11°
2026-05-06 15:39 48.72578 2.34922 293 ft 1 kts 329°
2026-05-06 15:40 48.72571 2.34931 294 ft 1 kts 291°
2026-05-06 15:40 48.72568 2.34944 293 ft 1 kts 271°
2026-05-06 15:40 48.72568 2.34950 292 ft 0 kts 264°
2026-05-06 15:48 48.72568 2.34949 291 ft 0 kts 264°
2026-05-06 15:49 48.72566 2.34943 291 ft 3 kts 243°
2026-05-06 15:49 48.72505 2.34898 291 ft 5 kts 208°
2026-05-06 15:49 48.72486 2.34888 295 ft 9 kts 194°
2026-05-06 15:50 48.72434 2.34891 291 ft 6 kts 175°
2026-05-06 15:50 48.72383 2.34903 295 ft 9 kts 162°
2026-05-06 15:50 48.72343 2.34945 294 ft 6 kts 131°
2026-05-06 15:50 48.72330 2.34972 293 ft 0 kts 122°
2026-05-06 15:52 48.72329 2.34975 291 ft 3 kts 121°
2026-05-06 15:52 48.72303 2.35055 294 ft 8 kts 116°
2026-05-06 15:52 48.72287 2.35110 295 ft 7 kts 112°
2026-05-06 15:52 48.72264 2.35189 294 ft 9 kts 111°
2026-05-06 15:53 48.72252 2.35295 294 ft 10 kts 88°
2026-05-06 15:53 48.72262 2.35397 291 ft 7 kts 78°
2026-05-06 15:53 48.72276 2.35483 294 ft 7 kts 79°
2026-05-06 15:53 48.72283 2.35536 291 ft 9 kts 48°
2026-05-06 15:54 48.72343 2.35461 295 ft 14 kts 307°
2026-05-06 15:54 48.72404 2.35394 293 ft 10 kts 334°
2026-05-06 15:54 48.72470 2.35355 293 ft 9 kts 343°
2026-05-06 15:54 48.72549 2.35322 294 ft 15 kts 345°
2026-05-06 15:55 48.72624 2.35291 294 ft 8 kts 343°
2026-05-06 15:55 48.72653 2.35277 294 ft 4 kts 341°
2026-05-06 15:55 48.72671 2.35269 293 ft 8 kts 345°
2026-05-06 15:55 48.72726 2.35251 292 ft 5 kts 353°
2026-05-06 15:56 48.72785 2.35276 293 ft 13 kts 16°
2026-05-06 15:56 48.72850 2.35304 295 ft 7 kts 15°
2026-05-06 15:56 48.72898 2.35324 291 ft 11 kts 17°
2026-05-06 15:56 48.72959 2.35358 293 ft 8 kts 23°
2026-05-06 15:57 48.73035 2.35405 291 ft 14 kts 21°
2026-05-06 15:57 48.73106 2.35439 291 ft 7 kts
2026-05-06 15:57 48.73104 2.35338 294 ft 17 kts 209°
2026-05-06 15:57 48.73013 2.35345 293 ft 11 kts 162°
2026-05-06 15:58 48.72940 2.35347 293 ft 8 kts 200°
2026-05-06 15:58 48.72893 2.35259 291 ft 12 kts 253°
2026-05-06 15:58 48.72879 2.35154 291 ft 12 kts 262°
2026-05-06 15:58 48.72862 2.34976 293 ft 17 kts 262°
2026-05-06 15:59 48.72848 2.34824 295 ft 14 kts 261°
2026-05-06 15:59 48.72834 2.34689 292 ft 12 kts 261°
2026-05-06 15:59 48.72823 2.34566 290 ft 11 kts 263°
2026-05-06 15:59 48.72814 2.34458 290 ft 11 kts 264°
2026-05-06 16:00 48.72803 2.34340 292 ft 14 kts 260°
2026-05-06 16:00 48.72789 2.34205 291 ft 10 kts 261°
2026-05-06 16:00 48.72772 2.34106 293 ft 11 kts 238°
2026-05-06 16:00 48.72698 2.34004 295 ft 14 kts 208°
2026-05-06 16:01 48.72610 2.34020 291 ft 12 kts 154°
2026-05-06 16:01 48.72539 2.33991 291 ft 12 kts 236°
2026-05-06 16:01 48.72504 2.33885 294 ft 11 kts 246°
2026-05-06 16:01 48.72468 2.33793 294 ft 9 kts 240°
2026-05-06 16:02 48.72440 2.33711 294 ft 8 kts 244°
2026-05-06 16:02 48.72418 2.33643 294 ft 6 kts 243°
2026-05-06 16:02 48.72401 2.33594 293 ft 6 kts 240°
2026-05-06 16:02 48.72349 2.33456 294 ft 20 kts 241°
2026-05-06 16:03 48.72294 2.33298 293 ft 14 kts 242°
2026-05-06 16:03 48.72249 2.33168 292 ft 13 kts 241°
2026-05-06 16:03 48.72206 2.33049 292 ft 14 kts 240°
2026-05-06 16:03 48.72148 2.32885 292 ft 18 kts 242°
2026-05-06 16:04 48.72092 2.32728 295 ft 17 kts 242°
2026-05-06 16:04 48.72036 2.32570 291 ft 17 kts 242°
2026-05-06 16:04 48.71981 2.32410 292 ft 17 kts 241°
2026-05-06 16:04 48.71920 2.32239 294 ft 17 kts 242°
2026-05-06 16:05 48.71875 2.32108 294 ft 11 kts 242°
2026-05-06 16:05 48.71847 2.32029 291 ft 6 kts 241°
2026-05-06 16:05 48.71841 2.32013 293 ft 0 kts 241°
2026-05-06 16:06 48.71824 2.31956 295 ft 6 kts 251°
2026-05-06 16:07 48.71820 2.31936 293 ft 0 kts 253°
2026-05-06 16:07 48.71817 2.31918 294 ft 9 kts 259°
2026-05-06 16:08 48.71818 2.31866 291 ft 0 kts 280°
2026-05-06 16:10 48.71841 2.31792 291 ft 14 kts 306°
2026-05-06 16:10 48.71868 2.31754 295 ft 0 kts 325°
2026-05-06 16:10 48.71869 2.31753 291 ft 2 kts 325°
2026-05-06 16:11 48.71946 2.31722 295 ft 10 kts
2026-05-06 16:11 48.72017 2.31767 292 ft 16 kts 43°
2026-05-06 16:11 48.72112 2.32013 290 ft 47 kts 61°
2026-05-06 16:11 48.72354 2.32685 293 ft 97 kts 61°
2026-05-06 16:12 48.72745 2.33807 295 ft 145 kts 62°
2026-05-06 16:12 48.73229 2.35231 881 ft 149 kts 60°
2026-05-06 16:12 48.73689 2.36638 1718 ft 153 kts 62°
2026-05-06 16:12 48.74166 2.38227 2295 ft 179 kts 62°
2026-05-06 16:13 48.74678 2.40012 3186 ft 182 kts 68°
2026-05-06 16:13 48.75150 2.41777 4101 ft 184 kts 64°
2026-05-06 16:13 48.75667 2.43634 4517 ft 198 kts 65°
2026-05-06 16:13 48.75988 2.45704 5001 ft 209 kts 85°
2026-05-06 16:14 48.75910 2.47963 5450 ft 222 kts 95°
2026-05-06 16:14 48.75694 2.50348 5848 ft 235 kts 96°
2026-05-06 16:14 48.75485 2.52862 6270 ft 245 kts 94°
2026-05-06 16:14 48.75277 2.55405 6938 ft 242 kts 102°
2026-05-06 16:15 48.74553 2.57735 7380 ft 253 kts 128°
2026-05-06 16:15 48.73128 2.59361 7673 ft 266 kts 159°
2026-05-06 16:15 48.71289 2.60170 8048 ft 283 kts 166°
2026-05-06 16:15 48.69333 2.60864 8617 ft 293 kts 168°
2026-05-06 16:16 48.67324 2.61551 9317 ft 298 kts 168°
2026-05-06 16:16 48.65287 2.62074 10093 ft 300 kts 179°
2026-05-06 16:16 48.63201 2.61695 10672 ft 307 kts 197°
2026-05-06 16:16 48.61165 2.60534 11128 ft 319 kts 208°
2026-05-06 16:17 48.59179 2.58900 11545 ft 333 kts 210°
2026-05-06 16:17 48.57099 2.57240 11930 ft 347 kts 208°
2026-05-06 16:17 48.54891 2.55561 12272 ft 362 kts 208°
2026-05-06 16:17 48.52588 2.53828 12569 ft 377 kts 208°
2026-05-06 16:18 48.50199 2.52004 12869 ft 390 kts 208°
2026-05-06 16:18 48.47844 2.50183 14210 ft 365 kts 208°
2026-05-06 16:18 48.45669 2.48674 16203 ft 325 kts 201°
2026-05-06 16:18 48.43579 2.47648 17531 ft 310 kts 198°
2026-05-06 16:19 48.41489 2.46686 17987 ft 320 kts 198°
2026-05-06 16:19 48.39306 2.45704 18271 ft 334 kts 198°
2026-05-06 16:19 48.37029 2.44685 18552 ft 348 kts 197°
2026-05-06 16:19 48.34658 2.43616 18796 ft 363 kts 198°
2026-05-06 16:20 48.32182 2.42559 19009 ft 378 kts 193°
2026-05-06 16:20 48.29564 2.42040 19177 ft 392 kts 182°
2026-05-06 16:20 48.26792 2.42258 19301 ft 407 kts 172°
2026-05-06 16:20 48.24031 2.43326 19720 ft 411 kts 160°
2026-05-06 16:21 48.21389 2.44741 20792 ft 394 kts 161°
2026-05-06 16:21 48.18872 2.46079 22075 ft 375 kts 160°
2026-05-06 16:21 48.16436 2.47370 22921 ft 370 kts 160°
2026-05-06 16:21 48.13967 2.48676 23048 ft 385 kts 160°
2026-05-06 16:22 48.11366 2.50052 22803 ft 408 kts 160°
2026-05-06 16:22 48.08622 2.51504 22568 ft 428 kts 160°
2026-05-06 16:22 48.05761 2.52987 22446 ft 443 kts 161°
2026-05-06 16:22 48.02804 2.54441 22384 ft 450 kts 162°
2026-05-06 16:23 47.99825 2.55864 22363 ft 446 kts 162°
2026-05-06 16:23 47.96886 2.57249 22351 ft 439 kts 162°
2026-05-06 16:23 47.93991 2.58632 22347 ft 434 kts 162°
2026-05-06 16:23 47.91145 2.60031 22345 ft 429 kts 162°
2026-05-06 16:24 47.88325 2.61439 22342 ft 425 kts 162°
2026-05-06 16:24 47.85539 2.62823 22339 ft 421 kts 162°
2026-05-06 16:24 47.82773 2.64183 22346 ft 418 kts 161°
2026-05-06 16:24 47.79980 2.65576 22348 ft 428 kts 161°
2026-05-06 16:25 47.77120 2.67004 22343 ft 441 kts 161°
2026-05-06 16:25 47.74174 2.68448 22343 ft 449 kts 162°
2026-05-06 16:25 47.71229 2.69864 23118 ft 433 kts 162°
2026-05-06 16:25 47.68497 2.71179 24458 ft 398 kts 161°
2026-05-06 16:26 47.65903 2.72445 25473 ft 388 kts 161°
2026-05-06 16:26 47.63371 2.73690 25974 ft 392 kts 161°
2026-05-06 16:26 47.60742 2.74977 26098 ft 404 kts 161°
2026-05-06 16:26 47.58027 2.76294 26151 ft 418 kts 161°
2026-05-06 16:27 47.55224 2.77646 26201 ft 430 kts 161°
2026-05-06 16:27 47.52348 2.79032 26244 ft 440 kts 161°
2026-05-06 16:27 47.49402 2.80453 26289 ft 450 kts 161°
2026-05-06 16:27 47.46404 2.81900 26597 ft 452 kts 161°
2026-05-06 16:28 47.43464 2.83320 27635 ft 434 kts 161°
2026-05-06 16:28 47.40663 2.84671 28883 ft 413 kts 162°
2026-05-06 16:28 47.37970 2.85966 29716 ft 403 kts 161°
2026-05-06 16:28 47.35336 2.87234 29634 ft 394 kts 162°
2026-05-06 16:29 47.32744 2.88479 29395 ft 391 kts 162°
2026-05-06 16:29 47.30141 2.89724 29149 ft 398 kts 162°
2026-05-06 16:29 47.27484 2.90993 28932 ft 404 kts 162°
2026-05-06 16:29 47.24817 2.92267 28936 ft 403 kts 162°
2026-05-06 16:30 47.20385 2.94384 28930 ft 403 kts 162°
2026-05-06 16:30 47.14161 2.97353 28929 ft 402 kts 162°
2026-05-06 16:31 47.08832 2.99801 28932 ft 401 kts 164°
2026-05-06 16:31 47.03445 3.01925 28931 ft 401 kts 165°
2026-05-06 16:32 46.98076 3.04105 28930 ft 400 kts 164°
2026-05-06 16:32 46.92724 3.06340 28931 ft 400 kts 165°
2026-05-06 16:33 46.87364 3.08530 28931 ft 401 kts 165°
2026-05-06 16:34 46.79025 3.11937 28935 ft 427 kts 165°
2026-05-06 16:34 46.73248 3.14295 28935 ft 440 kts 165°
2026-05-06 16:35 46.67277 3.16720 28930 ft 448 kts 165°
2026-05-06 16:35 46.61301 3.19147 28928 ft 443 kts 165°
2026-05-06 16:36 46.55399 3.21538 28929 ft 438 kts 165°
2026-05-06 16:36 46.49548 3.23901 28930 ft 435 kts 165°
2026-05-06 16:37 46.43738 3.26242 28925 ft 433 kts 165°
2026-05-06 16:37 46.37947 3.28570 28928 ft 431 kts 166°
2026-05-06 16:38 46.32187 3.30881 28928 ft 429 kts 166°
2026-05-06 16:38 46.26440 3.33182 28930 ft 428 kts 166°
2026-05-06 16:39 46.20703 3.35474 28931 ft 427 kts 166°
2026-05-06 16:39 46.14985 3.37756 28932 ft 426 kts 166°
2026-05-06 16:40 46.09247 3.40031 28930 ft 429 kts 166°
2026-05-06 16:40 46.03445 3.42334 28927 ft 438 kts 166°
2026-05-06 16:41 45.97541 3.44670 28924 ft 447 kts 166°
2026-05-06 16:41 45.91483 3.47064 28924 ft 455 kts 167°
2026-05-06 16:42 45.85337 3.49488 28935 ft 461 kts 167°
2026-05-06 16:42 45.79153 3.52150 28929 ft 466 kts 165°
2026-05-06 16:43 45.72944 3.54905 28929 ft 468 kts 166°
2026-05-06 16:43 45.66702 3.57550 28935 ft 468 kts 166°
2026-05-06 16:44 45.60454 3.60220 28929 ft 467 kts 166°
2026-05-06 16:44 45.54273 3.62884 28927 ft 461 kts 166°
2026-05-06 16:45 45.48143 3.65493 28928 ft 458 kts 166°
2026-05-06 16:45 45.43077 3.67647 28925 ft 457 kts 166°
2026-05-06 16:46 45.36995 3.70235 28926 ft 455 kts 166°
2026-05-06 16:46 45.31000 3.73040 28917 ft 457 kts 158°
2026-05-06 16:46 45.27487 3.76373 28918 ft 464 kts 141°
2026-05-06 16:47 45.25996 3.78644 28927 ft 468 kts 131°
2026-05-06 16:47 45.24301 3.82600 28928 ft 474 kts 117°
2026-05-06 16:47 45.23234 3.87031 29002 ft 474 kts 110°
2026-05-06 16:47 45.22321 3.91501 29176 ft 470 kts 109°
2026-05-06 16:48 45.21441 3.95955 29251 ft 468 kts 109°
2026-05-06 16:48 45.19636 4.04863 29076 ft 472 kts 111°
2026-05-06 16:49 45.17771 4.13759 28962 ft 474 kts 111°
2026-05-06 16:49 45.15917 4.22730 28928 ft 475 kts 111°
2026-05-06 16:50 45.14052 4.31703 28922 ft 474 kts 111°
2026-05-06 16:50 45.12029 4.40559 28928 ft 468 kts 120°
2026-05-06 16:50 45.10448 4.44535 28934 ft 460 kts 131°
2026-05-06 16:51 45.08412 4.47953 28935 ft 450 kts 142°
2026-05-06 16:51 45.03683 4.53665 28940 ft 446 kts 146°
2026-05-06 16:52 44.98891 4.59230 28917 ft 446 kts 147°
2026-05-06 16:52 44.94127 4.64839 28914 ft 446 kts 147°
2026-05-06 16:53 44.89369 4.70430 28918 ft 445 kts 147°
2026-05-06 16:53 44.84603 4.75991 28937 ft 445 kts 147°
2026-05-06 16:54 44.79835 4.81553 28925 ft 445 kts 147°
2026-05-06 16:54 44.75083 4.87003 28923 ft 440 kts 152°
2026-05-06 16:55 44.69695 4.90598 28935 ft 421 kts 172°
2026-05-06 16:55 44.63990 4.92067 28936 ft 416 kts 177°
2026-05-06 16:56 44.58272 4.93367 28926 ft 416 kts 177°
2026-05-06 16:56 44.52559 4.94704 28920 ft 417 kts 176°
2026-05-06 16:57 44.46829 4.96048 28903 ft 417 kts 177°
2026-05-06 16:57 44.43990 4.96711 28783 ft 411 kts 177°
2026-05-06 16:57 44.41138 4.97370 28446 ft 420 kts 177°
2026-05-06 16:58 44.35333 4.98705 28407 ft 414 kts 177°
2026-05-06 16:58 44.32525 4.99367 28085 ft 408 kts 177°
2026-05-06 16:58 44.29709 5.00017 27496 ft 412 kts 177°
2026-05-06 16:58 44.26858 5.00665 26853 ft 417 kts 177°
2026-05-06 16:59 44.23993 5.01319 26334 ft 418 kts 176°
2026-05-06 16:59 44.21169 5.01962 25655 ft 419 kts 177°
2026-05-06 16:59 44.18211 5.02549 24994 ft 424 kts 176°
2026-05-06 16:59 44.15383 5.03221 24663 ft 414 kts 176°
2026-05-06 17:00 44.12552 5.03947 24044 ft 412 kts 174°
2026-05-06 17:00 44.09755 5.04797 23293 ft 413 kts 173°
2026-05-06 17:00 44.06929 5.05568 22567 ft 411 kts 176°
2026-05-06 17:00 44.04135 5.06125 22122 ft 403 kts 175°
2026-05-06 17:01 44.01403 5.06979 21461 ft 404 kts 170°
2026-05-06 17:01 43.98657 5.07896 20646 ft 406 kts 174°
2026-05-06 17:01 43.95878 5.08401 19923 ft 400 kts 181°
2026-05-06 17:01 43.93106 5.08738 19292 ft 400 kts 178°
2026-05-06 17:02 43.90366 5.09207 18685 ft 397 kts 178°
2026-05-06 17:02 43.87634 5.09668 17983 ft 392 kts 178°
2026-05-06 17:02 43.84877 5.10387 17059 ft 406 kts 169°
2026-05-06 17:02 43.82196 5.11597 16307 ft 405 kts 165°
2026-05-06 17:03 43.79511 5.13017 15343 ft 415 kts 161°
2026-05-06 17:03 43.76855 5.14545 14475 ft 415 kts 161°
2026-05-06 17:03 43.74263 5.15969 14142 ft 399 kts 162°
2026-05-06 17:03 43.71752 5.17393 14274 ft 376 kts 160°
2026-05-06 17:04 43.69321 5.18755 13338 ft 381 kts 163°
2026-05-06 17:04 43.66783 5.19845 12710 ft 378 kts 168°
2026-05-06 17:04 43.64285 5.20678 12876 ft 358 kts 169°
2026-05-06 17:04 43.61859 5.21482 11681 ft 372 kts 169°
2026-05-06 17:05 43.59358 5.22489 10916 ft 376 kts 163°
2026-05-06 17:05 43.56875 5.23774 9939 ft 385 kts 161°
2026-05-06 17:05 43.54369 5.25087 9150 ft 386 kts 161°
2026-05-06 17:05 43.52856 5.25844 8678 ft 386 kts 162°
2026-05-06 17:07 43.51754 5.26360 8272 ft 378 kts 163°
2026-05-06 17:07 43.49195 5.27453 7019 ft 383 kts 164°
2026-05-06 17:07 43.46747 5.28486 7893 ft 330 kts 165°
2026-05-06 17:08 43.44733 5.29333 8222 ft 289 kts 165°
2026-05-06 17:08 43.42733 5.30333 6417 ft 323 kts 160°
2026-05-06 17:08 43.40608 5.31466 5642 ft 320 kts 161°
2026-05-06 17:08 43.38547 5.32631 4889 ft 314 kts 160°
2026-05-06 17:09 43.36649 5.33685 5099 ft 280 kts 160°
2026-05-06 17:09 43.34880 5.34668 4738 ft 270 kts 160°
2026-05-06 17:09 43.33157 5.35622 4324 ft 264 kts 160°
2026-05-06 17:09 43.31469 5.36551 3923 ft 259 kts 160°
2026-05-06 17:10 43.29815 5.37481 3517 ft 254 kts 155°
2026-05-06 17:10 43.28400 5.38884 3102 ft 250 kts 141°
2026-05-06 17:10 43.27088 5.40331 3006 ft 231 kts 153°
2026-05-06 17:10 43.25631 5.40792 3000 ft 206 kts 188°
2026-05-06 17:11 43.24415 5.40096 3018 ft 180 kts 225°
2026-05-06 17:11 43.23808 5.38662 3138 ft 171 kts 252°
2026-05-06 17:11 43.23642 5.37064 2697 ft 177 kts 282°
2026-05-06 17:11 43.24304 5.35611 2216 ft 188 kts 322°
2026-05-06 17:12 43.25527 5.35050 2089 ft 185 kts 354°
2026-05-06 17:12 43.26828 5.34988 2218 ft 200 kts 358°
2026-05-06 17:12 43.28257 5.34996 2146 ft 203 kts 359°
2026-05-06 17:12 43.29658 5.35021 2070 ft 195 kts 359°
2026-05-06 17:13 43.30961 5.35048 2060 ft 184 kts 359°
2026-05-06 17:13 43.32234 5.35084 2016 ft 182 kts 359°
2026-05-06 17:13 43.33464 5.34964 2016 ft 175 kts 345°
2026-05-06 17:13 43.34548 5.34311 2056 ft 167 kts 323°
2026-05-06 17:14 43.35426 5.33313 2047 ft 161 kts 313°
2026-05-06 17:14 43.36209 5.32230 2072 ft 160 kts 311°
2026-05-06 17:14 43.36979 5.31106 2034 ft 163 kts 310°
2026-05-06 17:14 43.37750 5.29968 2007 ft 163 kts 309°
2026-05-06 17:15 43.38557 5.28782 1795 ft 178 kts 310°
2026-05-06 17:15 43.39439 5.27502 1476 ft 186 kts 311°
2026-05-06 17:15 43.40308 5.26272 1170 ft 175 kts 311°
2026-05-06 17:15 43.41160 5.25070 852 ft 176 kts 311°
2026-05-06 17:16 43.42003 5.23876 532 ft 169 kts 311°
2026-05-06 17:16 43.42787 5.22778 145 ft 156 kts 311°
2026-05-06 17:16 43.43433 5.21824 49 ft 106 kts 310°
2026-05-06 17:16 43.43791 5.21319 41 ft 50 kts 312°
2026-05-06 17:17 43.43991 5.21124 36 ft 24 kts 343°
2026-05-06 17:17 43.44080 5.21112 33 ft 4 kts 15°
2026-05-06 17:17 43.44081 5.21113 33 ft 0 kts 17°
2026-05-06 17:17 43.44084 5.21114 33 ft 2 kts 19°
2026-05-06 17:18 43.44109 5.21190 32 ft 7 kts 105°
2026-05-06 17:18 43.44076 5.21267 33 ft 8 kts 133°
2026-05-06 17:18 43.44027 5.21335 35 ft 9 kts 135°
2026-05-06 17:18 43.44005 5.21366 35 ft 5 kts 132°
2026-05-06 17:19 43.43940 5.21460 36 ft 12 kts 129°
2026-05-06 17:19 43.43935 5.21569 36 ft 13 kts 55°
2026-05-06 17:19 43.43975 5.21660 36 ft 7 kts 82°
2026-05-06 17:19 43.43962 5.21723 38 ft 9 kts 126°
2026-05-06 17:20 43.43913 5.21795 39 ft 12 kts 126°
2026-05-06 17:20 43.43933 5.21901 38 ft 9 kts 48°
2026-05-06 17:20 43.43962 5.21942 38 ft 9 kts 44°
2026-05-06 17:20 43.43981 5.21968 39 ft 0 kts 44°
2026-05-06 17:21 43.44006 5.22006 38 ft 8 kts 50°
2026-05-06 17:21 43.44017 5.22025 40 ft 7 kts 49°
2026-05-06 17:21 43.44040 5.22061 40 ft 3 kts 49°
2026-05-06 17:21 43.44054 5.22085 40 ft 7 kts 49°
2026-05-06 17:22 43.44060 5.22095 38 ft 0 kts 50°
2026-05-06 17:25 43.35012 5.34595 4772 ft 271 kts 160°
2026-05-06 17:25 43.33384 5.35497 4363 ft 265 kts 160°
2026-05-06 17:25 43.31669 5.36441 3971 ft 260 kts 160°
2026-05-06 17:26 43.29973 5.37381 3559 ft 254 kts 157°
2026-05-06 17:26 43.28472 5.38802 3125 ft 250 kts 141°
2026-05-06 17:26 43.27085 5.40333 3004 ft 231 kts 153°
2026-05-06 17:26 43.25565 5.40784 2999 ft 205 kts 190°
2026-05-06 17:27 43.24327 5.39982 3016 ft 179 kts 229°
2026-05-06 17:27 43.23764 5.38480 3133 ft 170 kts 253°
2026-05-06 17:27 43.37104 5.30923 2008 ft 163 kts 310°
2026-05-06 17:27 43.37876 5.29782 1986 ft 165 kts 309°
2026-05-06 17:28 43.38705 5.28565 1742 ft 181 kts 310°
2026-05-06 17:28 43.39605 5.27266 1422 ft 184 kts 311°
2026-05-06 17:28 43.40468 5.26047 1102 ft 175 kts 311°
2026-05-06 17:28 43.41321 5.24842 792 ft 175 kts 311°
2026-05-06 17:29 43.42175 5.23632 458 ft 165 kts 311°
2026-05-06 17:29 43.42968 5.22526 65 ft 152 kts 310°
2026-05-06 17:29 43.43557 5.21643 45 ft 85 kts 316°
2026-05-06 17:29 43.43858 5.21225 39 ft 42 kts 316°
2026-05-06 17:30 43.44030 5.21111 35 ft 16 kts 348°